Regional Weather Roundup
Issued by NWS

Home | Current Version | Previous Version | Graphics & Text | Print | Product List | Glossary On
Versions: 1 2 3 4 5 6 7 8 9 10 11 12 13 14 15 16 17 18 19 20 21 22 23 24 25 26 27 28 29 30 31 32 33 34 35 36 37 38 39 40 41 42 43 44 45 46 47 48 49 50
000
ASUS43 KOAX 280002
RWRNE

WEATHER ROUNDUP FOR NEBRASKA
NATIONAL WEATHER SERVICE OMAHA NE
700 PM CDT MON APR 27 2015

NOTES: SATELLITE DATA IS BEING USED TO AUGMENT CLOUD COVER ABOVE
       12000 FEET.
       "FAIR" INDICATES FEW OR NO CLOUDS BELOW 12,000 FEET WITH NO
       SIGNIFICANT WEATHER AND/OR OBSTRUCTIONS TO VISIBILITY.

  * THESE STATIONS DO NOT REPORT WEATHER SUCH AS RAIN...SNOW OR FOG.

NEZ001>004-019>022-054>056-280100-
NEBRASKA PANHANDLE

CITY           SKY/WX    TMP DP  RH WIND       PRES   REMARKS
SCOTTSBLUFF    CLOUDY    55  41  59 NW8       30.26R
6HR MIN TEMP:  50; 6HR MAX TEMP:  58;

ALLIANCE       CLOUDY    56  44  64 N20       30.23S
6HR MIN TEMP:  53; 6HR MAX TEMP:  62;

CHADRON        CLOUDY    51  43  74 N9        30.29S
6HR MIN TEMP:  51; 6HR MAX TEMP:  57;

KIMBALL        PTSUNNY   52  36  55 NE7       30.24S
SIDNEY         PTSUNNY   54  37  52 N9        30.24S
6HR MIN TEMP:  51; 6HR MAX TEMP:  59;

$$

NEZ057>060-069>072-079>082-280100-
SOUTHWEST NEBRASKA

CITY           SKY/WX    TMP DP  RH WIND       PRES   REMARKS
NORTH PLATTE   CLOUDY    64  31  28 N12       30.17S
6HR MIN TEMP:  60; 6HR MAX TEMP:  66;

IMPERIAL       PTSUNNY   60  31  33 NE12      30.19S
6HR MIN TEMP:  56; 6HR MAX TEMP:  61;

LEXINGTON      CLOUDY    63  35  34 NE12      30.15R
MCCOOK         PTSUNNY   65  32  29 NE15      30.15S
6HR MIN TEMP:  59; 6HR MAX TEMP:  67;

OGALLALA       PTSUNNY   63  32  31 N10       30.19F
$$

NEZ005>010-023>029-035>040-094-280100-
NORTH CENTRAL NEBRASKA

CITY           SKY/WX    TMP DP  RH WIND       PRES   REMARKS
VALENTINE      MOSUNNY   63  41  44 N17G25    30.20R
6HR MIN TEMP:  63; 6HR MAX TEMP:  69;

AINSWORTH      MOSUNNY   66  31  26 N14G23    30.18S
BROKEN BOW     PTSUNNY   65  31  28 NE14      30.15S
6HR MIN TEMP:  62; 6HR MAX TEMP:  69;

ORD            MOSUNNY   65  29  25 N13       30.14S
6HR MIN TEMP:  64; 6HR MAX TEMP:  69;

$$

NEZ041-046>049-061>064-073>077-083>087-280100-
SOUTH CENTRAL NEBRASKA

CITY           SKY/WX    TMP DP  RH WIND       PRES   REMARKS
GRAND ISLAND   MOSUNNY   66  28  24 NE13      30.13S
6HR MIN TEMP:  61; 6HR MAX TEMP:  67;

AURORA         MOSUNNY   64  31  28 NE10      30.13S
HASTINGS       CLOUDY    62  35  36 E8        30.13S
6HR MIN TEMP:  60; 6HR MAX TEMP:  64;

HEBRON         CLOUDY    64  26  24 NE9       30.12R
HOLDREGE       CLOUDY    62  32  32 E12G17    30.14S
KEARNEY *      CLOUDY    63  36  36 NE13      30.14S
$$

NEZ011>018-030>034-042>045-280100-
NORTHEAST NEBRASKA

CITY           SKY/WX    TMP DP  RH WIND       PRES   REMARKS
NORFOLK        MOSUNNY   68  24  19 NE10      30.13S
6HR MIN TEMP:  65; 6HR MAX TEMP:  71;

ALBION         MOSUNNY   67  27  22 NE10      30.13S
BLAIR          SUNNY     67  27  22 NE10G20   30.11R
COLUMBUS *     SUNNY     66  28  24 NE9       30.14F
FREMONT        SUNNY     68  27  21 NE6       30.12S
TEKAMAH        MOSUNNY   70  28  21 NE12      30.11S
6HR MIN TEMP:  66; 6HR MAX TEMP:  73;

WAYNE          MOSUNNY   69  21  16 NE9       30.14S
$$

NEZ050>053-065>068-078-088>093-280100-
SOUTHEAST NEBRASKA

CITY           SKY/WX    TMP DP  RH WIND       PRES   REMARKS
LINCOLN        SUNNY     66  32  28 NE9       30.12S
6HR MIN TEMP:  64; 6HR MAX TEMP:  68;

OMAHA EPPLEY   PTSUNNY   69  30  23 E13G18    30.10S
6HR MIN TEMP:  64; 6HR MAX TEMP:  71;

BEATRICE       MOSUNNY   64  33  31 NE10      30.10S
FALLS CITY     MOSUNNY   65  32  29 E10       30.07S
6HR MIN TEMP:  63; 6HR MAX TEMP:  68;

NEBRASKA CITY  SUNNY     66  21  18 NE13      30.09F
PLATTSMOUTH    SUNNY     67  24  19 NE12      30.10S
$$

NEZ044-045-051>053-067-280100-
OMAHA AREA

CITY           SKY/WX    TMP DP  RH WIND       PRES   REMARKS
OMAHA EPPLEY   PTSUNNY   69  30  23 E13G18    30.10S
6HR MIN TEMP:  64; 6HR MAX TEMP:  71;

BLAIR          SUNNY     67  27  22 NE10G20   30.11R
FREMONT        SUNNY     68  27  21 NE6       30.12S
MILLARD        SUNNY     68  30  24 NE5       30.10S
OFFUTT AFB     SUNNY     68  30  24 NE9       30.09S
PLATTSMOUTH    SUNNY     67  24  19 NE12      30.10S
WAHOO          FAIR      68  23  18 NE10G17   30.11S
$$


USA.gov is the U.S. government's official web portal to all federal, state and local government web resources and services.